Location: El Centro
(32.7920°N, 115.5620°W)
Time: 03:43:29
(UTC-07:00)

Amateur Radio Satellites - All Passes

Search period start: 23 May 2017 03:13
Search period end: 24 May 2017 03:13
Location: El Centro, 32.7920°N, 115.5620°W

Satellite Date Start Highest point End Downlink Frequencies (MHz)
Time Altitude Azimuth
RS-15 23 May 03:19:59 03:31:57 71° 300° (WNW) 03:44:22 29.354- 29.394
ITUPSAT 1 23 May 03:20:23 03:25:03 57° 259° (W) 03:29:45 437.325
AO-7 23 May 03:23:21 03:30:40 33° 99° (E) 03:37:55 .
Oscar 19 23 May 03:48:32 03:49:55 11° 297° (WNW) 03:51:19 437.125/150
BEESAT 23 May 03:57:56 04:01:34 22° 264° (W) 04:05:14 436.000
KKS-1 23 May 04:01:28 04:05:13 28° 71° (ENE) 04:08:58 437.445
O/OREOS (USA 219) 23 May 04:14:50 04:19:16 50° 105° (ESE) 04:23:43 437.305
MOZHAYETS 4 23 May 04:15:43 04:19:30 26° 264° (W) 04:23:21
ITAMSAT 1 23 May 04:38:06 04:43:04 47° 288° (WNW) 04:48:02 435.822/435.867
STARS 23 May 04:43:35 04:47:31 34° 72° (ENE) 04:51:25 437.465
JUGNU 23 May 04:43:51 04:47:55 19° 170° (S) 04:52:00 437.505
ISS 23 May 04:47:40 04:50:46 39° 40° (NE) 04:53:51 437.550
CUBESAT XI-V 23 May 04:49:48 04:54:29 70° 259° (WSW) 04:59:12 437.345
Tancredo 1 23 May 04:54:51 04:57:55 85° 40° (NE) 05:00:58 437.200
AO-85 23 May 05:00:40 05:04:52 55° 116° (ESE) 05:08:52 145.980
AO-7 23 May 05:15:36 05:23:27 48° 294° (WNW) 05:31:19 .
BEESAT 3 23 May 05:16:58 05:19:54 20° 110° (ESE) 05:22:52 437.485
PCSat 23 May 05:29:20 05:34:42 61° 63° (ENE) 05:40:03 145.827
KKS-1 23 May 05:38:24 05:41:42 21° 264° (W) 05:45:02 437.445
RS-15 23 May 05:38:38 05:47:12 21° 326° (NW) 05:55:53 29.354- 29.394
O/OREOS (USA 219) 23 May 05:56:43 05:58:56 13° 300° (WNW) 06:01:10 437.305
XW-2D 23 May 05:59:15 06:01:54 18° 95° (E) 06:04:33 145.860 - 145.880
CUTE-I 23 May 06:05:21 06:09:24 22° 96° (E) 06:13:26 437.470
XW-2B 23 May 06:06:47 06:09:46 21° 96° (E) 06:12:45 145.730 - 145.750
STRAND 1 23 May 06:15:59 06:19:05 17° 66° (ENE) 06:22:12 437.568
XW-2C 23 May 06:19:49 06:23:19 32° 98° (E) 06:26:46 145.795 - 145.815
STARS 23 May 06:21:10 06:23:53 16° 265° (W) 06:26:36 437.465
XW-2F 23 May 06:21:51 06:25:21 32° 98° (E) 06:28:48 145.980 - 146.000
BEESAT 2 23 May 06:24:14 06:27:58 44° 114° (ESE) 06:31:47 435.950
ISS 23 May 06:25:17 06:26:58 13° 234° (SW) 06:28:39 437.550
JUGNU 23 May 06:31:42 06:36:20 23° 180° (S) 06:40:58 437.505
NUDT-PHONESAT 23 May 06:33:09 06:36:40 36° 98° (E) 06:40:09 437.300
KAITUO 1B 23 May 06:36:04 06:39:41 41° 99° (E) 06:43:14 145.475/437.950
AO-85 23 May 06:44:06 06:45:30 11° 309° (NW) 06:46:52 145.980
DOVE 4 23 May 06:46:19 06:50:23 56° 284° (WNW) 06:54:32 437.250
LilacSat-2 23 May 06:53:07 06:57:00 78° 284° (WNW) 07:00:51 437.200
BEESAT 3 23 May 06:54:00 06:57:17 25° 305° (NW) 07:00:38 437.485
SRMSAT 23 May 07:04:27 07:08:14 17° 168° (SSE) 07:12:00 437.500
CUTE 1.7 + AOD 2 23 May 07:06:13 07:08:36 15° 93° (E) 07:11:00 437.475
HO-68 23 May 07:09:26 07:15:15 26° 96° (E) 07:21:00 435.675
PCSat 23 May 07:14:53 07:17:29 14° 257° (WSW) 07:20:05 145.827
XW-2D 23 May 07:32:55 07:36:00 23° 288° (WNW) 07:39:04 145.860 - 145.880
XW-2B 23 May 07:40:59 07:43:47 20° 289° (WNW) 07:46:35 145.730 - 145.750
CUTE-I 23 May 07:44:36 07:49:28 37° 289° (WNW) 07:54:21 437.470
STRAND 1 23 May 07:52:56 07:57:49 47° 260° (W) 08:02:45 437.568
XW-2C 23 May 07:55:17 07:57:09 13° 291° (WNW) 07:59:00 145.795 - 145.815
XW-2F 23 May 07:57:20 07:59:07 13° 291° (WNW) 08:00:56 145.980 - 146.000
SO-50 23 May 07:58:01 08:02:00 30° 55° (NE) 08:05:59 436.795
SEEDS 23 May 08:01:35 08:05:37 44° 99° (E) 08:09:37 437.485
BEESAT 2 23 May 08:03:57 08:05:57 13° 310° (NW) 08:07:57 435.950
XW-2A 23 May 08:04:16 08:07:43 77° 102° (ESE) 08:11:08 145.665 - 145.685
RS-15 23 May 08:04:31 08:07:14 11° 4° (N) 08:09:57 29.354- 29.394
NUDT-PHONESAT 23 May 08:08:57 08:10:11 11° 291° (WNW) 08:11:24 437.300
KAITUO 1B 23 May 08:12:39 08:13:14 10° 292° (WNW) 08:13:50 145.475/437.950
M-CUBED/EXP-1 PRIME 23 May 08:13:14 08:17:41 87° 249° (WSW) 08:21:53 437.505
JUGNU 23 May 08:20:40 08:24:44 19° 190° (S) 08:28:49 437.505
AO-73 23 May 08:31:40 08:35:08 21° 95° (E) 08:38:36 145.935
CUBEBUG 2 23 May 08:37:58 08:42:34 89° 288° (WNW) 08:47:15 437.445
CUTE 1.7 + AOD 2 23 May 08:40:38 08:44:31 35° 287° (WNW) 08:48:22 437.475
ZACube-1 23 May 08:42:47 08:46:53 32° 97° (E) 08:50:58 437.345
SRMSAT 23 May 08:52:12 08:56:47 23° 178° (S) 09:01:21 437.500
HO-68 23 May 08:56:14 09:03:06 50° 291° (WNW) 09:09:57 435.675
UWE-3 23 May 08:56:28 09:01:04 88° 97° (E) 09:05:43 435.000/436.395/437.385
NO-84 23 May 09:06:30 09:10:50 61° 129° (SE) 09:15:06 435.350 FM
TIGRISAT 23 May 09:10:36 09:13:25 18° 69° (ENE) 09:16:16 435.000
AAUSAT CUBESAT 2 23 May 09:12:53 09:16:53 51° 285° (WNW) 09:20:52 437.432
PRISM 23 May 09:21:24 09:25:12 36° 73° (ENE) 09:29:00 437.425
EO-88 23 May 09:33:15 09:34:46 12° 94° (E) 09:36:16 145.990 - 145.960
FO-29 23 May 09:36:44 09:41:38 41° 72° (ENE) 09:46:29 435.910
SO-50 23 May 09:38:46 09:42:15 22° 249° (WSW) 09:45:46 436.795
SEEDS 23 May 09:39:12 09:40:51 12° 293° (WNW) 09:42:30 437.485
UNISAT 6 23 May 09:39:48 09:43:48 43° 74° (ENE) 09:47:53 437.425
Oscar 11 23 May 09:45:02 09:49:20 64° 284° (WNW) 09:53:37 .
DELFI C3 23 May 10:06:02 10:09:53 54° 100° (E) 10:13:43 145.870
AO-73 23 May 10:07:24 10:11:17 28° 288° (WNW) 10:15:11 145.935
RS-15 23 May 10:16:43 10:26:27 26° 40° (NE) 10:35:47 29.354- 29.394
ZACube-1 23 May 10:19:39 10:22:53 19° 290° (WNW) 10:26:07 437.345
SRMSAT 23 May 10:41:08 10:45:21 20° 188° (S) 10:49:34 437.500
NO-84 23 May 10:45:45 10:48:43 18° 323° (NW) 10:51:38 435.350 FM
TIGRISAT 23 May 10:46:08 10:49:51 30° 263° (W) 10:53:36 435.000
EO-79 23 May 10:55:54 10:58:45 18° 69° (ENE) 11:01:37 145.935-145.965
PRISM 23 May 10:58:28 11:00:33 14° 266° (W) 11:02:39 437.425
ESTCUBE 1 23 May 11:03:30 11:05:34 13° 93° (E) 11:07:36 437.505/2401.250
EO-88 23 May 11:05:12 11:08:29 30° 286° (WNW) 11:11:43 145.990 - 145.960
AIST 2D 23 May 11:06:38 11:10:01 49° 76° (ENE) 11:13:26 435.315
YUBILEINY 23 May 11:19:12 11:24:31 17° 68° (ENE) 11:29:48 435.215
UNISAT 6 23 May 11:19:13 11:20:42 12° 267° (W) 11:22:12 437.425
FO-29 23 May 11:23:37 11:26:54 17° 266° (W) 11:30:10 435.910
NANOSAT C BR1 23 May 11:42:08 11:46:14 62° 76° (ENE) 11:50:22 145.865
POLYITAN 1 23 May 11:43:03 11:47:12 72° 77° (ENE) 11:51:23 437.675
QB50P2 23 May 11:51:29 11:55:40 81° 260° (W) 11:59:52 145.880/145.840
DUCHIFAT 1 23 May 11:54:51 11:58:59 80° 76° (ENE) 12:03:09 145.980
LO-87 23 May 12:00:24 12:03:51 51° 284° (WNW) 12:07:19 145.935 - 145.965
VELOX 1 23 May 12:14:24 12:17:37 20° 96° (E) 12:20:50 145.980
BUGSAT 1 23 May 12:28:06 12:32:00 53° 75° (ENE) 12:35:54 437.445
RS-15 23 May 12:28:30 12:40:41 89° 247° (WSW) 12:52:10 29.354- 29.394
Gurwin Techsat 1B 23 May 12:30:30 12:32:35 12° 64° (ENE) 12:34:41 435.225
EO-79 23 May 12:30:40 12:34:16 28° 263° (W) 12:37:53 145.935-145.965
SRMSAT 23 May 12:32:08 12:33:50 11° 197° (SSW) 12:35:33 437.500
SPROUT 23 May 12:35:44 12:39:42 37° 98° (E) 12:43:40 437.525
ESTCUBE 1 23 May 12:38:14 12:42:32 44° 286° (WNW) 12:46:47 437.505/2401.250
DX 1 23 May 13:01:39 13:05:07 23° 97° (E) 13:08:33 434.975-435.025
UKube-1 23 May 13:02:17 13:04:47 15° 95° (E) 13:07:17 .
YUBILEINY 23 May 13:13:23 13:22:15 83° 266° (W) 13:31:04 435.215
Oscar 19 23 May 13:18:19 13:23:28 68° 75° (ENE) 13:28:39 437.125/150
AO-85 23 May 13:36:58 13:39:06 14° 52° (NE) 13:41:18 145.980
50 SAT 23 May 13:41:02 13:44:20 52° 284° (WNW) 13:47:37 437.505
VELOX 1 23 May 13:50:18 13:54:00 28° 289° (WNW) 13:57:43 145.980
Gurwin Techsat 1B 23 May 14:06:35 14:11:52 69° 258° (WSW) 14:17:10 435.225
SPROUT 23 May 14:12:52 14:15:16 15° 292° (WNW) 14:17:38 437.525
ITAMSAT 1 23 May 14:14:17 14:17:31 17° 66° (ENE) 14:20:46 435.822/435.867
AO-7 23 May 14:17:58 14:24:56 32° 62° (ENE) 14:31:56 .
BEESAT 23 May 14:26:50 14:27:43 10° 92° (E) 14:28:38 436.000
O/OREOS (USA 219) 23 May 14:29:20 14:33:40 45° 68° (ENE) 14:37:57 437.305
UKube-1 23 May 14:36:58 14:40:52 35° 288° (WNW) 14:44:46 .
DX 1 23 May 14:37:43 14:41:10 24° 290° (WNW) 14:44:35 434.975-435.025
RS-15 23 May 14:44:17 14:51:18 18° 261° (W) 14:58:10 29.354- 29.394
Oscar 19 23 May 15:01:50 15:03:09 11° 268° (W) 15:04:29 437.125/150
BEESAT 3 23 May 15:14:06 15:17:55 42° 58° (ENE) 15:21:40 437.485
YUBILEINY 23 May 15:14:39 15:17:34 12° 282° (WNW) 15:20:30 435.215
AO-85 23 May 15:15:41 15:19:38 45° 245° (WSW) 15:23:49 145.980
ITUPSAT 1 23 May 15:25:09 15:29:50 51° 100° (E) 15:34:31 437.325
ITAMSAT 1 23 May 15:51:35 15:56:33 47° 260° (W) 16:01:32 435.822/435.867
BEESAT 23 May 16:01:05 16:05:48 61° 286° (WNW) 16:10:31 436.000
AO-7 23 May 16:09:21 16:17:17 51° 258° (WSW) 16:25:18 .
O/OREOS (USA 219) 23 May 16:10:44 16:12:33 12° 262° (W) 16:14:23 437.305
MOZHAYETS 4 23 May 16:14:04 16:18:43 79° 285° (WNW) 16:23:21
BEESAT 2 23 May 16:23:12 16:27:16 85° 243° (WSW) 16:31:16 435.950
CUBESAT XI-V 23 May 16:50:57 16:55:20 40° 98° (E) 16:59:39 437.345
BEESAT 3 23 May 16:53:38 16:55:03 12° 252° (WSW) 16:56:28 437.485
ITUPSAT 1 23 May 17:04:44 17:07:10 14° 294° (WNW) 17:09:36 437.325
KAITUO 1B 23 May 17:14:25 17:15:08 10° 68° (ENE) 17:15:50 145.475/437.950
NO-84 23 May 17:22:28 17:25:52 48° 45° (NE) 17:28:58 435.350 FM
CUTE-I 23 May 17:23:00 17:27:09 24° 68° (ENE) 17:31:18 437.470
LilacSat-2 23 May 17:30:54 17:34:03 25° 72° (ENE) 17:37:13 437.200
KKS-1 23 May 17:32:14 17:36:40 78° 284° (WNW) 17:41:05 437.445
HO-68 23 May 17:37:05 17:39:35 12° 57° (ENE) 17:42:06 435.675
DOVE 4 23 May 17:46:37 17:51:27 83° 77° (ENE) 17:56:00 437.250
XW-2D 23 May 18:08:40 18:12:26 83° 77° (ENE) 18:16:16 145.860 - 145.880
STARS 23 May 18:12:49 18:17:09 64° 285° (WNW) 18:21:30 437.465
XW-2B 23 May 18:16:31 18:20:17 79° 257° (WSW) 18:24:07 145.730 - 145.750
PCSat 23 May 18:25:57 18:28:47 14° 104° (ESE) 18:31:37 145.827
CUBESAT XI-V 23 May 18:29:31 18:32:18 16° 292° (WNW) 18:35:06 437.345
XW-2C 23 May 18:30:08 18:33:48 48° 261° (W) 18:37:30 145.795 - 145.815
XW-2F 23 May 18:31:44 18:35:23 48° 261° (W) 18:39:04 145.980 - 146.000
XW-2A 23 May 18:33:16 18:34:30 12° 69° (ENE) 18:35:44 145.665 - 145.685
NUDT-PHONESAT 23 May 18:41:21 18:44:54 45° 261° (W) 18:48:29 437.300
KAITUO 1B 23 May 18:45:11 18:48:42 39° 261° (W) 18:52:16 145.475/437.950
SEEDS 23 May 18:49:38 18:52:30 18° 70° (ENE) 18:55:22 437.485
CUTE-I 23 May 19:02:09 19:06:56 35° 262° (W) 19:11:46 437.470
LilacSat-2 23 May 19:05:50 19:08:16 16° 265° (W) 19:10:43 437.200
HO-68 23 May 19:19:00 19:26:09 79° 74° (ENE) 19:33:22 435.675
CUTE 1.7 + AOD 2 23 May 19:27:55 19:32:10 88° 87° (E) 19:36:30 437.475
CUBEBUG 2 23 May 19:31:56 19:35:48 40° 74° (ENE) 19:39:43 437.445
ZACube-1 23 May 19:35:52 19:38:00 14° 68° (ENE) 19:40:09 437.345
UWE-3 23 May 19:49:18 19:53:06 37° 73° (ENE) 19:56:59 435.000/436.395/437.385
Tancredo 1 23 May 19:49:34 19:51:35 16° 128° (SE) 19:53:37 437.200
ISS 23 May 19:50:54 19:51:24 10° 125° (SE) 19:51:55 437.550
AAUSAT CUBESAT 2 23 May 19:57:57 20:02:01 54° 75° (ENE) 20:06:06 437.432
XW-2A 23 May 20:04:07 20:06:56 25° 263° (W) 20:09:47 145.665 - 145.685
PCSat 23 May 20:06:16 20:11:35 58° 297° (WNW) 20:16:57 145.827
STRAND 1 23 May 20:07:34 20:12:44 84° 104° (ESE) 20:17:53 437.568
SEEDS 23 May 20:24:12 20:27:55 30° 263° (W) 20:31:40 437.485
Oscar 11 23 May 20:34:56 20:39:09 53° 75° (ENE) 20:43:23 .
DELFI C3 23 May 20:47:58 20:50:35 17° 70° (ENE) 20:53:13 145.870
AO-73 23 May 20:57:42 21:01:48 61° 259° (W) 21:06:00 145.935
ZACube-1 23 May 21:10:02 21:13:53 37° 262° (W) 21:17:50 437.345
HO-68 23 May 21:10:46 21:14:26 15° 268° (W) 21:18:08 435.675
CUBEBUG 2 23 May 21:11:07 21:12:35 12° 267° (W) 21:14:04 437.445
ISS 23 May 21:24:18 21:27:31 52° 318° (NW) 21:30:45 437.550
Tancredo 1 23 May 21:24:26 21:27:10 29° 321° (NW) 21:29:54 437.200
UWE-3 23 May 21:27:47 21:29:41 13° 267° (W) 21:31:37 435.000/436.395/437.385
M-CUBED/EXP-1 PRIME 23 May 21:30:51 21:34:02 49° 289° (WNW) 21:37:10 437.505
UNISAT 6 23 May 21:36:53 21:39:20 14° 94° (E) 21:41:49 437.425
EO-88 23 May 21:37:58 21:41:29 50° 76° (ENE) 21:45:03 145.990 - 145.960
SO-50 23 May 22:08:07 22:11:58 27° 112° (ESE) 22:15:48 436.795
DELFI C3 23 May 22:21:42 22:25:07 27° 263° (W) 22:28:32 145.870
LO-87 23 May 22:32:16 22:35:18 27° 73° (ENE) 22:38:20 145.935 - 145.965
FO-29 23 May 22:32:38 22:39:05 64° 102° (ESE) 22:46:20 435.910
TIGRISAT 23 May 22:40:48 22:45:25 75° 102° (ESE) 22:50:04 435.000
PRISM 23 May 22:41:45 22:45:47 71° 285° (WNW) 22:49:49 437.425
VELOX 1 23 May 23:09:27 23:10:36 11° 66° (ENE) 23:11:45 145.980
UNISAT 6 23 May 23:11:47 23:16:09 44° 286° (WNW) 23:20:34 437.425
SPROUT 23 May 23:25:47 23:28:26 16° 69° (ENE) 23:31:06 437.525
NANOSAT C BR1 23 May 23:32:13 23:34:27 14° 94° (E) 23:36:42 145.865
ESTCUBE 1 23 May 23:32:37 23:37:09 87° 254° (WSW) 23:41:43 437.505/2401.250
POLYITAN 1 23 May 23:33:19 23:36:03 16° 95° (E) 23:38:45 437.675
QB50P2 23 May 23:41:13 23:44:36 23° 96° (E) 23:47:58 145.880/145.840
DUCHIFAT 1 23 May 23:44:07 23:46:58 17° 95° (E) 23:49:49 145.980
SO-50 23 May 23:48:27 23:52:19 26° 305° (NW) 23:56:10 436.795
DX 1 23 May 23:54:33 23:56:17 12° 66° (ENE) 23:58:02 434.975-435.025
LO-87 24 May 00:07:09 00:08:44 13° 266° (W) 00:10:19 145.935 - 145.965
AIST 2D 24 May 00:08:51 00:12:24 66° 283° (WNW) 00:15:55 435.315
50 SAT 24 May 00:09:16 00:12:04 23° 72° (ENE) 00:14:52 437.505
YUBILEINY 24 May 00:14:47 00:21:02 23° 82° (E) 00:27:18 435.215
BUGSAT 1 24 May 00:16:22 00:17:30 11° 93° (E) 00:18:38 437.445
EO-79 24 May 00:18:48 00:23:01 61° 100° (E) 00:27:14 145.935-145.965
FO-29 24 May 00:19:18 00:23:42 20° 293° (WNW) 00:28:25 435.910
RS-15 24 May 00:37:25 00:45:05 20° 99° (E) 00:52:51 29.354- 29.394
VELOX 1 24 May 00:42:11 00:46:31 55° 259° (W) 00:50:51 145.980
SPROUT 24 May 01:00:16 01:04:02 32° 262° (W) 01:07:51 437.525
NANOSAT C BR1 24 May 01:06:20 01:10:14 37° 287° (WNW) 01:14:09 145.865
POLYITAN 1 24 May 01:08:01 01:11:50 32° 287° (WNW) 01:15:38 437.675
QB50P2 24 May 01:16:51 01:20:15 23° 289° (WNW) 01:23:38 145.880/145.840
DUCHIFAT 1 24 May 01:18:56 01:22:37 29° 288° (WNW) 01:26:17 145.980
UKube-1 24 May 01:26:13 01:30:31 77° 258° (WSW) 01:34:51 .
DX 1 24 May 01:27:49 01:32:00 47° 260° (W) 01:36:13 434.975-435.025
Oscar 19 24 May 01:34:46 01:39:25 33° 98° (E) 01:44:01 437.125/150
50 SAT 24 May 01:43:02 01:44:53 14° 265° (W) 01:46:45 437.505
BUGSAT 1 24 May 01:49:04 01:53:00 44° 286° (WNW) 01:56:58 437.445
YUBILEINY 24 May 02:08:26 02:17:00 63° 279° (W) 02:25:41 435.215
Gurwin Techsat 1B 24 May 02:27:17 02:32:35 69° 102° (ESE) 02:37:52 435.225
ITUPSAT 1 24 May 02:27:35 02:31:54 36° 72° (ENE) 02:36:15 437.325
JUGNU 24 May 02:43:09 02:44:25 11° 162° (SSE) 02:45:43 437.505
RS-15 24 May 02:43:50 02:55:51 89° 296° (WNW) 03:08:19 29.354- 29.394
BEESAT 24 May 03:02:39 03:07:25 88° 265° (W) 03:12:12 436.000
